Time,TemperatureF,DewpointF,PressureIn,WindDirection,WindDirectionDegrees,WindSpeedMPH,WindSpeedGustMPH,Humidity,HourlyPrecipIn,Conditions,Clouds,dailyrainin,SolarRadiationWatts/m^2,SoftwareType,DateUTC
2013-04-06 00:01:00,36.7,32.0,30.07,NNE,27,5.0,14.0,83,0.00,-RA,OVC,0.00,0.0,WeatherDisplay:10.37,2013-04-05 23:01:00,
2013-04-06 00:31:00,36.6,31.9,30.08,NNE,31,0.0,12.0,83,0.00,-RA,OVC,0.00,0.0,WeatherDisplay:10.37,2013-04-05 23:31:00,
2013-04-06 01:01:00,36.3,31.9,30.09,NNE,12,2.0,11.0,84,0.00,-RA,OVC,0.00,0.0,WeatherDisplay:10.37,2013-04-06 00:01:00,
2013-04-06 01:31:00,36.0,31.9,30.09,NNE,30,2.0,10.0,85,0.00,-RA,OVC,0.00,0.0,WeatherDisplay:10.37,2013-04-06 00:31:00,
2013-04-06 02:01:00,35.6,32.1,30.10,NNE,12,2.0,10.0,87,0.00,-RA,OVC,0.00,0.0,WeatherDisplay:10.37,2013-04-06 01:01:00,
2013-04-06 02:31:00,35.3,31.8,30.10,NNE,30,0.0,9.0,87,0.00,-RA,OVC,0.00,0.0,WeatherDisplay:10.37,2013-04-06 01:31:00,
2013-04-06 03:01:00,35.3,31.8,30.10,North,9,5.0,12.0,87,0.00,-RA,OVC,0.00,0.0,WeatherDisplay:10.37,2013-04-06 02:01:00,
2013-04-06 03:31:00,35.0,31.5,30.10,NNE,25,1.0,10.0,87,0.00,-RA,OVC,0.00,0.0,WeatherDisplay:10.37,2013-04-06 02:31:00,
2013-04-06 04:01:00,34.7,31.2,30.10,NE,44,2.0,12.0,87,0.00,-RA,OVC,0.00,0.0,WeatherDisplay:10.37,2013-04-06 03:01:00,
2013-04-06 04:31:00,34.5,31.3,30.11,North,8,0.0,10.0,88,0.00,-RA,OVC,0.00,0.0,WeatherDisplay:10.37,2013-04-06 03:31:00,
2013-04-06 05:01:00,34.1,30.6,30.12,North,349,2.0,12.0,87,0.00,-RA,OVC,0.00,0.0,WeatherDisplay:10.37,2013-04-06 04:01:00,
2013-04-06 05:31:00,33.8,30.3,30.12,NNW,341,2.0,9.0,87,0.00,-RA,OVC,0.00,0.0,WeatherDisplay:10.37,2013-04-06 04:31:00,
2013-04-06 06:01:00,33.4,29.9,30.14,North,4,2.0,7.0,87,0.00,-RA,OVC,0.00,0.0,WeatherDisplay:10.37,2013-04-06 05:01:00,
2013-04-06 07:01:00,32.7,29.5,30.16,North,360,0.0,3.0,88,0.00,-RA,OVC,0.00,30.0,WeatherDisplay:10.37,2013-04-06 06:01:00,
2013-04-06 07:31:00,33.4,30.2,30.16,North,358,0.0,5.0,88,0.00,-RA,OVC,0.00,125.0,WeatherDisplay:10.37,2013-04-06 06:31:00,
2013-04-06 08:01:00,35.2,31.2,30.17,NNE,20,1.0,5.0,85,0.00,-RA,OVC,0.00,216.0,WeatherDisplay:10.37,2013-04-06 07:01:00,
2013-04-06 08:31:00,37.5,31.6,30.17,NNW,344,2.0,9.0,79,0.00,-RA,OVC,0.00,304.0,WeatherDisplay:10.37,2013-04-06 07:31:00,
2013-04-06 09:01:00,39.3,32.0,30.18,NNE,13,2.0,12.0,75,0.00,-RA,OVC,0.00,369.0,WeatherDisplay:10.37,2013-04-06 08:01:00,
2013-04-06 09:31:00,40.6,31.2,30.18,ENE,69,1.0,12.0,69,0.00,-RA,OVC,0.00,538.0,WeatherDisplay:10.37,2013-04-06 08:31:00,
2013-04-06 10:01:00,41.6,30.3,30.19,NNE,16,5.0,15.0,64,0.00,-RA,OVC,0.00,584.0,WeatherDisplay:10.37,2013-04-06 09:01:00,
2013-04-06 10:31:00,42.9,31.1,30.19,East,88,6.0,12.0,63,0.00,-RA,OVC,0.00,744.0,WeatherDisplay:10.37,2013-04-06 09:31:00,
2013-04-06 11:31:00,43.8,30.0,30.20,ESE,104,1.0,12.0,58,0.00,-RA,OVC,0.00,279.0,WeatherDisplay:10.37,2013-04-06 10:31:00,
2013-04-06 12:01:00,44.0,28.8,30.20,East,96,2.0,10.0,55,0.00,-RA,OVC,0.00,264.0,WeatherDisplay:10.37,2013-04-06 11:01:00,
2013-04-06 12:31:00,45.5,29.3,30.20,East,93,1.0,10.0,53,0.00,-RA,OVC,0.00,322.0,WeatherDisplay:10.37,2013-04-06 11:31:00,
2013-04-06 13:01:00,46.6,29.4,30.21,ESE,109,2.0,10.0,51,0.00,-RA,OVC,0.00,863.0,WeatherDisplay:10.37,2013-04-06 12:01:00,
2013-04-06 13:31:00,47.1,28.4,30.21,NNE,21,1.0,7.0,48,0.00,-RA,OVC,0.00,819.0,WeatherDisplay:10.37,2013-04-06 12:31:00,
2013-04-06 14:31:00,49.6,29.1,30.20,SE,138,2.0,7.0,45,0.00,-RA,OVC,0.00,824.0,WeatherDisplay:10.37,2013-04-06 13:31:00,
2013-04-06 15:01:00,49.0,27.4,30.20,NNE,26,2.0,10.0,43,0.00,-RA,OVC,0.00,680.0,WeatherDisplay:10.37,2013-04-06 14:01:00,
2013-04-06 16:01:00,50.3,27.5,30.19,East,89,1.0,12.0,41,0.00,-RA,OVC,0.00,155.0,WeatherDisplay:10.37,2013-04-06 15:01:00,
2013-04-06 16:31:00,49.9,27.1,30.19,ESE,116,1.0,9.0,41,0.00,-RA,OVC,0.00,418.0,WeatherDisplay:10.37,2013-04-06 15:31:00,
2013-04-06 17:01:00,50.8,27.9,30.17,SE,128,1.0,16.0,41,0.00,-RA,OVC,0.00,362.0,WeatherDisplay:10.37,2013-04-06 16:01:00,
2013-04-06 17:31:00,51.0,26.9,30.18,NNE,17,2.0,10.0,39,0.00,-RA,OVC,0.00,297.0,WeatherDisplay:10.37,2013-04-06 16:31:00,
2013-04-06 18:01:00,50.0,26.6,30.18,NNE,31,1.0,12.0,40,0.00,-RA,OVC,0.00,90.0,WeatherDisplay:10.37,2013-04-06 17:01:00,
2013-04-06 18:31:00,50.0,26.6,30.17,NE,44,1.0,7.0,40,0.00,-RA,OVC,0.00,93.0,WeatherDisplay:10.37,2013-04-06 17:31:00,
2013-04-06 19:00:00,49.4,26.7,30.17,NNE,18,0.0,10.0,41,0.00,-RA,OVC,0.00,32.0,WeatherDisplay:10.37,2013-04-06 18:00:00,
2013-04-06 19:30:00,48.0,27.7,30.19,East,101,1.0,6.0,45,0.00,-RA,OVC,0.00,11.0,WeatherDisplay:10.37,2013-04-06 18:30:00,
2013-04-06 20:00:00,46.1,28.5,30.19,SE,140,3.0,7.0,50,0.00,-RA,OVC,0.00,0.0,WeatherDisplay:10.37,2013-04-06 19:00:00,
2013-04-06 20:30:00,44.6,28.0,30.21,SE,135,1.0,9.0,52,0.00,-RA,OVC,0.00,0.0,WeatherDisplay:10.37,2013-04-06 19:30:00,
2013-04-06 21:00:00,43.2,27.7,30.23,ESE,111,0.0,6.0,54,0.00,-RA,OVC,0.00,0.0,WeatherDisplay:10.37,2013-04-06 20:00:00,
2013-04-06 21:30:00,42.0,26.6,30.24,SE,138,0.0,4.0,54,0.00,-RA,OVC,0.00,0.0,WeatherDisplay:10.37,2013-04-06 20:30:00,
2013-04-06 22:00:00,41.6,25.7,30.24,SE,135,0.0,7.0,53,0.00,-RA,OVC,0.00,0.0,WeatherDisplay:10.37,2013-04-06 21:00:00,
2013-04-06 22:30:00,41.1,25.7,30.24,SE,135,0.0,8.0,54,0.00,-RA,OVC,0.00,0.0,WeatherDisplay:10.37,2013-04-06 21:30:00,
2013-04-06 23:00:00,40.6,25.6,30.25,SSE,149,0.0,5.0,55,0.00,-RA,OVC,0.00,0.0,WeatherDisplay:10.37,2013-04-06 22:00:00,
2013-04-06 23:30:00,39.9,25.8,30.24,SSE,156,1.0,4.0,57,0.00,-RA,OVC,0.00,0.0,WeatherDisplay:10.37,2013-04-06 22:30:00,